owner,sensor,date,latitude,longitude,vertical_datum,sea_water_practical_salinity,qcFlag 
ENP,ioos.station.NOAA.NDBC:LRIF1:1,2019-09-01T00:00:00Z,25.2840,-80.8940,1.5,3.53,11111222 
ENP,ioos.station.NOAA.NDBC:LRIF1:1,2019-09-01T01:00:00Z,25.2840,-80.8940,1.5,3.54,11111222 
ENP,ioos.station.NOAA.NDBC:LRIF1:1,2019-09-01T02:00:00Z,25.2840,-80.8940,1.5,3.82,11111222 
ENP,ioos.station.NOAA.NDBC:LRIF1:1,2019-09-01T04:00:00Z,25.2840,-80.8940,1.5,4.28,11111222 
ENP,ioos.station.NOAA.NDBC:LRIF1:1,2019-09-01T06:00:00Z,25.2840,-80.8940,1.5,3.79,11111222 
ENP,ioos.station.NOAA.NDBC:LRIF1:1,2019-09-01T07:00:00Z,25.2840,-80.8940,1.5,3.77,11111222 
ENP,ioos.station.NOAA.NDBC:LRIF1:1,2019-09-01T08:00:00Z,25.2840,-80.8940,1.5,3.68,11111222 
ENP,ioos.station.NOAA.NDBC:LRIF1:1,2019-09-01T09:00:00Z,25.2840,-80.8940,1.5,3.53,11111222 
ENP,ioos.station.NOAA.NDBC:LRIF1:1,2019-09-01T10:00:00Z,25.2840,-80.8940,1.5,3.4,11111222 
ENP,ioos.station.NOAA.NDBC:LRIF1:1,2019-09-01T11:00:00Z,25.2840,-80.8940,1.5,3.33,11111222 
ENP,ioos.station.NOAA.NDBC:LRIF1:1,2019-09-01T12:00:00Z,25.2840,-80.8940,1.5,3.33,11111222 
ENP,ioos.station.NOAA.NDBC:LRIF1:1,2019-09-01T13:00:00Z,25.2840,-80.8940,1.5,3.34,11111222 
ENP,ioos.station.NOAA.NDBC:LRIF1:1,2019-09-01T14:00:00Z,25.2840,-80.8940,1.5,3.44,11111222 
ENP,ioos.station.NOAA.NDBC:LRIF1:1,2019-09-01T15:00:00Z,25.2840,-80.8940,1.5,3.89,11111222 
ENP,ioos.station.NOAA.NDBC:LRIF1:1,2019-09-01T16:00:00Z,25.2840,-80.8940,1.5,4.0,11111222 
ENP,ioos.station.NOAA.NDBC:LRIF1:1,2019-09-01T17:00:00Z,25.2840,-80.8940,1.5,3.95,11111222 
ENP,ioos.station.NOAA.NDBC:LRIF1:1,2019-09-01T18:00:00Z,25.2840,-80.8940,1.5,3.9,11111222 
ENP,ioos.station.NOAA.NDBC:LRIF1:1,2019-09-01T19:00:00Z,25.2840,-80.8940,1.5,3.74,11111222 
ENP,ioos.station.NOAA.NDBC:LRIF1:1,2019-09-01T20:00:00Z,25.2840,-80.8940,1.5,3.47,11111222 
ENP,ioos.station.NOAA.NDBC:LRIF1:1,2019-09-01T21:00:00Z,25.2840,-80.8940,1.5,3.41,11111222 
ENP,ioos.station.NOAA.NDBC:LRIF1:1,2019-09-01T22:00:00Z,25.2840,-80.8940,1.5,3.43,11111222 
ENP,ioos.station.NOAA.NDBC:LRIF1:1,2019-09-01T23:00:00Z,25.2840,-80.8940,1.5,3.45,11111222 
ENP,ioos.station.NOAA.NDBC:LRIF1:1,2019-09-02T00:00:00Z,25.2840,-80.8940,1.5,3.53,11111222 
ENP,ioos.station.NOAA.NDBC:LRIF1:1,2019-09-02T01:00:00Z,25.2840,-80.8940,1.5,4.02,11111222 
ENP,ioos.station.NOAA.NDBC:LRIF1:1,2019-09-02T02:00:00Z,25.2840,-80.8940,1.5,5.15,11111222 
ENP,ioos.station.NOAA.NDBC:LRIF1:1,2019-09-02T04:00:00Z,25.2840,-80.8940,1.5,7.29,11111222 
ENP,ioos.station.NOAA.NDBC:LRIF1:1,2019-09-02T06:00:00Z,25.2840,-80.8940,1.5,6.42,11111222 
ENP,ioos.station.NOAA.NDBC:LRIF1:1,2019-09-02T07:00:00Z,25.2840,-80.8940,1.5,5.8,11111222 
ENP,ioos.station.NOAA.NDBC:LRIF1:1,2019-09-02T08:00:00Z,25.2840,-80.8940,1.5,4.99,11111222 
ENP,ioos.station.NOAA.NDBC:LRIF1:1,2019-09-02T09:00:00Z,25.2840,-80.8940,1.5,4.53,11111222 
ENP,ioos.station.NOAA.NDBC:LRIF1:1,2019-09-02T10:00:00Z,25.2840,-80.8940,1.5,4.73,11111222 
ENP,ioos.station.NOAA.NDBC:LRIF1:1,2019-09-02T11:00:00Z,25.2840,-80.8940,1.5,6.12,11111222 
ENP,ioos.station.NOAA.NDBC:LRIF1:1,2019-09-02T12:00:00Z,25.2840,-80.8940,1.5,6.07,11111222 
ENP,ioos.station.NOAA.NDBC:LRIF1:1,2019-09-02T15:00:00Z,25.2840,-80.8940,1.5,7.31,11111222 
ENP,ioos.station.NOAA.NDBC:LRIF1:1,2019-09-02T16:00:00Z,25.2840,-80.8940,1.5,7.74,11111222 
ENP,ioos.station.NOAA.NDBC:LRIF1:1,2019-09-02T17:00:00Z,25.2840,-80.8940,1.5,8.34,11111222 
ENP,ioos.station.NOAA.NDBC:LRIF1:1,2019-09-02T18:00:00Z,25.2840,-80.8940,1.5,8.36,11111222 
ENP,ioos.station.NOAA.NDBC:LRIF1:1,2019-09-02T19:00:00Z,25.2840,-80.8940,1.5,7.69,11111222 
ENP,ioos.station.NOAA.NDBC:LRIF1:1,2019-09-02T20:00:00Z,25.2840,-80.8940,1.5,7.47,11111222 
ENP,ioos.station.NOAA.NDBC:LRIF1:1,2019-09-02T21:00:00Z,25.2840,-80.8940,1.5,7.33,11111222 
ENP,ioos.station.NOAA.NDBC:LRIF1:1,2019-09-02T22:00:00Z,25.2840,-80.8940,1.5,7.52,11111222 
ENP,ioos.station.NOAA.NDBC:LRIF1:1,2019-09-02T23:00:00Z,25.2840,-80.8940,1.5,8.37,11111222 
ENP,ioos.station.NOAA.NDBC:LRIF1:1,2019-09-03T00:00:00Z,25.2840,-80.8940,1.5,8.7,11111222 
ENP,ioos.station.NOAA.NDBC:LRIF1:1,2019-09-03T02:00:00Z,25.2840,-80.8940,1.5,9.21,11111222 
ENP,ioos.station.NOAA.NDBC:LRIF1:1,2019-09-03T04:00:00Z,25.2840,-80.8940,1.5,9.53,11111222 
ENP,ioos.station.NOAA.NDBC:LRIF1:1,2019-09-03T06:00:00Z,25.2840,-80.8940,1.5,9.78,11111222 
ENP,ioos.station.NOAA.NDBC:LRIF1:1,2019-09-03T07:00:00Z,25.2840,-80.8940,1.5,9.84,11111222 
ENP,ioos.station.NOAA.NDBC:LRIF1:1,2019-09-03T08:00:00Z,25.2840,-80.8940,1.5,8.39,11111222 
ENP,ioos.station.NOAA.NDBC:LRIF1:1,2019-09-03T09:00:00Z,25.2840,-80.8940,1.5,8.06,11111222 
ENP,ioos.station.NOAA.NDBC:LRIF1:1,2019-09-03T10:00:00Z,25.2840,-80.8940,1.5,8.07,11111222 
ENP,ioos.station.NOAA.NDBC:LRIF1:1,2019-09-03T11:00:00Z,25.2840,-80.8940,1.5,9.08,11111222 
ENP,ioos.station.NOAA.NDBC:LRIF1:1,2019-09-03T12:00:00Z,25.2840,-80.8940,1.5,8.96,11111222 
ENP,ioos.station.NOAA.NDBC:LRIF1:1,2019-09-03T13:00:00Z,25.2840,-80.8940,1.5,9.21,11111222 
ENP,ioos.station.NOAA.NDBC:LRIF1:1,2019-09-03T14:00:00Z,25.2840,-80.8940,1.5,9.46,11111222 
ENP,ioos.station.NOAA.NDBC:LRIF1:1,2019-09-03T15:00:00Z,25.2840,-80.8940,1.5,9.65,11111222 
ENP,ioos.station.NOAA.NDBC:LRIF1:1,2019-09-03T16:00:00Z,25.2840,-80.8940,1.5,9.84,11111222 
ENP,ioos.station.NOAA.NDBC:LRIF1:1,2019-09-03T17:00:00Z,25.2840,-80.8940,1.5,10.16,11111222 
ENP,ioos.station.NOAA.NDBC:LRIF1:1,2019-09-03T18:00:00Z,25.2840,-80.8940,1.5,10.36,11111222 
ENP,ioos.station.NOAA.NDBC:LRIF1:1,2019-09-03T19:00:00Z,25.2840,-80.8940,1.5,9.59,11111222 
ENP,ioos.station.NOAA.NDBC:LRIF1:1,2019-09-03T20:00:00Z,25.2840,-80.8940,1.5,9.34,11111222 
ENP,ioos.station.NOAA.NDBC:LRIF1:1,2019-09-03T21:00:00Z,25.2840,-80.8940,1.5,9.27,11111222 
ENP,ioos.station.NOAA.NDBC:LRIF1:1,2019-09-03T22:00:00Z,25.2840,-80.8940,1.5,9.08,11111222 
ENP,ioos.station.NOAA.NDBC:LRIF1:1,2019-09-03T23:00:00Z,25.2840,-80.8940,1.5,9.02,11111222 
ENP,ioos.station.NOAA.NDBC:LRIF1:1,2019-09-04T00:00:00Z,25.2840,-80.8940,1.5,9.21,11111222 
ENP,ioos.station.NOAA.NDBC:LRIF1:1,2019-09-04T02:00:00Z,25.2840,-80.8940,1.5,10.1,11111222 
ENP,ioos.station.NOAA.NDBC:LRIF1:1,2019-09-04T04:00:00Z,25.2840,-80.8940,1.5,10.48,11111222 
ENP,ioos.station.NOAA.NDBC:LRIF1:1,2019-09-04T06:00:00Z,25.2840,-80.8940,1.5,10.81,11111222 
ENP,ioos.station.NOAA.NDBC:LRIF1:1,2019-09-04T07:00:00Z,25.2840,-80.8940,1.5,10.74,11111222 
ENP,ioos.station.NOAA.NDBC:LRIF1:1,2019-09-04T08:00:00Z,25.2840,-80.8940,1.5,10.1,11111222 
ENP,ioos.station.NOAA.NDBC:LRIF1:1,2019-09-04T09:00:00Z,25.2840,-80.8940,1.5,10.04,11111222 
ENP,ioos.station.NOAA.NDBC:LRIF1:1,2019-09-04T10:00:00Z,25.2840,-80.8940,1.5,9.91,11111222 
ENP,ioos.station.NOAA.NDBC:LRIF1:1,2019-09-04T11:00:00Z,25.2840,-80.8940,1.5,9.21,11111222 
ENP,ioos.station.NOAA.NDBC:LRIF1:1,2019-09-04T12:00:00Z,25.2840,-80.8940,1.5,9.91,11111222 
ENP,ioos.station.NOAA.NDBC:LRIF1:1,2019-09-04T13:00:00Z,25.2840,-80.8940,1.5,9.91,11111222 
ENP,ioos.station.NOAA.NDBC:LRIF1:1,2019-09-04T14:00:00Z,25.2840,-80.8940,1.5,9.78,11111222 
ENP,ioos.station.NOAA.NDBC:LRIF1:1,2019-09-04T15:00:00Z,25.2840,-80.8940,1.5,9.84,11111222 
ENP,ioos.station.NOAA.NDBC:LRIF1:1,2019-09-04T16:00:00Z,25.2840,-80.8940,1.5,10.1,11111222 
ENP,ioos.station.NOAA.NDBC:LRIF1:1,2019-09-04T17:00:00Z,25.2840,-80.8940,1.5,10.29,11111222 
ENP,ioos.station.NOAA.NDBC:LRIF1:1,2019-09-04T18:00:00Z,25.2840,-80.8940,1.5,10.42,11111222 
ENP,ioos.station.NOAA.NDBC:LRIF1:1,2019-09-04T19:00:00Z,25.2840,-80.8940,1.5,9.97,11111222 
ENP,ioos.station.NOAA.NDBC:LRIF1:1,2019-09-04T20:00:00Z,25.2840,-80.8940,1.5,9.65,11111222 
ENP,ioos.station.NOAA.NDBC:LRIF1:1,2019-09-04T21:00:00Z,25.2840,-80.8940,1.5,9.27,11111222 
ENP,ioos.station.NOAA.NDBC:LRIF1:1,2019-09-04T22:00:00Z,25.2840,-80.8940,1.5,8.96,11111222 
ENP,ioos.station.NOAA.NDBC:LRIF1:1,2019-09-04T23:00:00Z,25.2840,-80.8940,1.5,8.89,11111222 
ENP,ioos.station.NOAA.NDBC:LRIF1:1,2019-09-05T00:00:00Z,25.2840,-80.8940,1.5,8.83,11111222 
ENP,ioos.station.NOAA.NDBC:LRIF1:1,2019-09-05T01:00:00Z,25.2840,-80.8940,1.5,8.77,11111222 
ENP,ioos.station.NOAA.NDBC:LRIF1:1,2019-09-05T02:00:00Z,25.2840,-80.8940,1.5,8.77,11111222 
ENP,ioos.station.NOAA.NDBC:LRIF1:1,2019-09-05T04:00:00Z,25.2840,-80.8940,1.5,9.21,11111222 
ENP,ioos.station.NOAA.NDBC:LRIF1:1,2019-09-05T06:00:00Z,25.2840,-80.8940,1.5,9.46,11111222 
ENP,ioos.station.NOAA.NDBC:LRIF1:1,2019-09-05T07:00:00Z,25.2840,-80.8940,1.5,9.02,11111222 
ENP,ioos.station.NOAA.NDBC:LRIF1:1,2019-09-05T08:00:00Z,25.2840,-80.8940,1.5,8.77,11111222 
ENP,ioos.station.NOAA.NDBC:LRIF1:1,2019-09-05T09:00:00Z,25.2840,-80.8940,1.5,8.7,11111222 
ENP,ioos.station.NOAA.NDBC:LRIF1:1,2019-09-05T10:00:00Z,25.2840,-80.8940,1.5,8.45,11111222 
ENP,ioos.station.NOAA.NDBC:LRIF1:1,2019-09-05T11:00:00Z,25.2840,-80.8940,1.5,8.33,11111222 
ENP,ioos.station.NOAA.NDBC:LRIF1:1,2019-09-05T12:00:00Z,25.2840,-80.8940,1.5,8.28,11111222 
ENP,ioos.station.NOAA.NDBC:LRIF1:1,2019-09-05T13:00:00Z,25.2840,-80.8940,1.5,8.28,11111222 
ENP,ioos.station.NOAA.NDBC:LRIF1:1,2019-09-05T14:00:00Z,25.2840,-80.8940,1.5,8.58,11111222 
ENP,ioos.station.NOAA.NDBC:LRIF1:1,2019-09-05T15:00:00Z,25.2840,-80.8940,1.5,8.7,11111222 
ENP,ioos.station.NOAA.NDBC:LRIF1:1,2019-09-05T16:00:00Z,25.2840,-80.8940,1.5,8.89,11111222 
ENP,ioos.station.NOAA.NDBC:LRIF1:1,2019-09-05T17:00:00Z,25.2840,-80.8940,1.5,9.46,11111222 
ENP,ioos.station.NOAA.NDBC:LRIF1:1,2019-09-05T18:00:00Z,25.2840,-80.8940,1.5,9.59,11111222 
ENP,ioos.station.NOAA.NDBC:LRIF1:1,2019-09-05T19:00:00Z,25.2840,-80.8940,1.5,9.15,11111222 
ENP,ioos.station.NOAA.NDBC:LRIF1:1,2019-09-05T20:00:00Z,25.2840,-80.8940,1.5,9.08,11111222 
ENP,ioos.station.NOAA.NDBC:LRIF1:1,2019-09-05T21:00:00Z,25.2840,-80.8940,1.5,8.7,11111222 
ENP,ioos.station.NOAA.NDBC:LRIF1:1,2019-09-05T22:00:00Z,25.2840,-80.8940,1.5,8.51,11111222 
ENP,ioos.station.NOAA.NDBC:LRIF1:1,2019-09-05T23:00:00Z,25.2840,-80.8940,1.5,8.19,11111222 
ENP,ioos.station.NOAA.NDBC:LRIF1:1,2019-09-06T00:00:00Z,25.2840,-80.8940,1.5,8.1,11111222 
ENP,ioos.station.NOAA.NDBC:LRIF1:1,2019-09-06T02:00:00Z,25.2840,-80.8940,1.5,7.85,11111222 
ENP,ioos.station.NOAA.NDBC:LRIF1:1,2019-09-06T04:00:00Z,25.2840,-80.8940,1.5,7.74,11111222 
ENP,ioos.station.NOAA.NDBC:LRIF1:1,2019-09-06T06:00:00Z,25.2840,-80.8940,1.5,8.31,11111222 
ENP,ioos.station.NOAA.NDBC:LRIF1:1,2019-09-06T07:00:00Z,25.2840,-80.8940,1.5,7.77,11111222 
ENP,ioos.station.NOAA.NDBC:LRIF1:1,2019-09-06T08:00:00Z,25.2840,-80.8940,1.5,7.62,11111222 
ENP,ioos.station.NOAA.NDBC:LRIF1:1,2019-09-06T09:00:00Z,25.2840,-80.8940,1.5,7.57,11111222 
ENP,ioos.station.NOAA.NDBC:LRIF1:1,2019-09-06T10:00:00Z,25.2840,-80.8940,1.5,7.45,11111222 
ENP,ioos.station.NOAA.NDBC:LRIF1:1,2019-09-06T11:00:00Z,25.2840,-80.8940,1.5,7.36,11111222 
ENP,ioos.station.NOAA.NDBC:LRIF1:1,2019-09-06T12:00:00Z,25.2840,-80.8940,1.5,7.25,11111222 
ENP,ioos.station.NOAA.NDBC:LRIF1:1,2019-09-06T13:00:00Z,25.2840,-80.8940,1.5,7.15,11111222 
ENP,ioos.station.NOAA.NDBC:LRIF1:1,2019-09-06T14:00:00Z,25.2840,-80.8940,1.5,7.12,11111222 
ENP,ioos.station.NOAA.NDBC:LRIF1:1,2019-09-06T15:00:00Z,25.2840,-80.8940,1.5,7.45,11111222 
ENP,ioos.station.NOAA.NDBC:LRIF1:1,2019-09-06T16:00:00Z,25.2840,-80.8940,1.5,7.67,11111222 
ENP,ioos.station.NOAA.NDBC:LRIF1:1,2019-09-06T18:00:00Z,25.2840,-80.8940,1.5,7.85,11111222 
ENP,ioos.station.NOAA.NDBC:LRIF1:1,2019-09-06T19:00:00Z,25.2840,-80.8940,1.5,8.21,11111222 
ENP,ioos.station.NOAA.NDBC:LRIF1:1,2019-09-06T20:00:00Z,25.2840,-80.8940,1.5,8.14,11111222 
ENP,ioos.station.NOAA.NDBC:LRIF1:1,2019-09-06T21:00:00Z,25.2840,-80.8940,1.5,8.01,11111222 
ENP,ioos.station.NOAA.NDBC:LRIF1:1,2019-09-06T22:00:00Z,25.2840,-80.8940,1.5,7.65,11111222 
ENP,ioos.station.NOAA.NDBC:LRIF1:1,2019-09-06T23:00:00Z,25.2840,-80.8940,1.5,7.42,11111222 
ENP,ioos.station.NOAA.NDBC:LRIF1:1,2019-09-07T00:00:00Z,25.2840,-80.8940,1.5,7.27,11111222 
ENP,ioos.station.NOAA.NDBC:LRIF1:1,2019-09-07T02:00:00Z,25.2840,-80.8940,1.5,7.08,11111222 
ENP,ioos.station.NOAA.NDBC:LRIF1:1,2019-09-07T04:00:00Z,25.2840,-80.8940,1.5,6.95,11111222 
ENP,ioos.station.NOAA.NDBC:LRIF1:1,2019-09-07T06:00:00Z,25.2840,-80.8940,1.5,7.26,11111222 
ENP,ioos.station.NOAA.NDBC:LRIF1:1,2019-09-07T07:00:00Z,25.2840,-80.8940,1.5,7.43,11111222 
ENP,ioos.station.NOAA.NDBC:LRIF1:1,2019-09-07T08:00:00Z,25.2840,-80.8940,1.5,7.54,11111222 
ENP,ioos.station.NOAA.NDBC:LRIF1:1,2019-09-07T09:00:00Z,25.2840,-80.8940,1.5,7.55,11111222 
ENP,ioos.station.NOAA.NDBC:LRIF1:1,2019-09-07T10:00:00Z,25.2840,-80.8940,1.5,7.13,11111222 
ENP,ioos.station.NOAA.NDBC:LRIF1:1,2019-09-07T11:00:00Z,25.2840,-80.8940,1.5,6.93,11111222 
ENP,ioos.station.NOAA.NDBC:LRIF1:1,2019-09-07T12:00:00Z,25.2840,-80.8940,1.5,6.87,11111222 
ENP,ioos.station.NOAA.NDBC:LRIF1:1,2019-09-07T13:00:00Z,25.2840,-80.8940,1.5,6.87,11111222 
ENP,ioos.station.NOAA.NDBC:LRIF1:1,2019-09-07T14:00:00Z,25.2840,-80.8940,1.5,6.88,11111222 
ENP,ioos.station.NOAA.NDBC:LRIF1:1,2019-09-07T15:00:00Z,25.2840,-80.8940,1.5,7.13,11111222 
ENP,ioos.station.NOAA.NDBC:LRIF1:1,2019-09-07T16:00:00Z,25.2840,-80.8940,1.5,7.29,11111222 
ENP,ioos.station.NOAA.NDBC:LRIF1:1,2019-09-07T18:00:00Z,25.2840,-80.8940,1.5,7.77,11111222 
ENP,ioos.station.NOAA.NDBC:LRIF1:1,2019-09-07T19:00:00Z,25.2840,-80.8940,1.5,8.21,11111222 
ENP,ioos.station.NOAA.NDBC:LRIF1:1,2019-09-07T20:00:00Z,25.2840,-80.8940,1.5,8.64,11111222 
ENP,ioos.station.NOAA.NDBC:LRIF1:1,2019-09-07T21:00:00Z,25.2840,-80.8940,1.5,8.7,11111222 
ENP,ioos.station.NOAA.NDBC:LRIF1:1,2019-09-07T22:00:00Z,25.2840,-80.8940,1.5,8.51,11111222 
ENP,ioos.station.NOAA.NDBC:LRIF1:1,2019-09-07T23:00:00Z,25.2840,-80.8940,1.5,8.37,11111222 
ENP,ioos.station.NOAA.NDBC:LRIF1:1,2019-09-08T00:00:00Z,25.2840,-80.8940,1.5,7.86,11111222 
ENP,ioos.station.NOAA.NDBC:LRIF1:1,2019-09-08T01:00:00Z,25.2840,-80.8940,1.5,7.51,11111222 
ENP,ioos.station.NOAA.NDBC:LRIF1:1,2019-09-08T02:00:00Z,25.2840,-80.8940,1.5,7.26,11111222 
ENP,ioos.station.NOAA.NDBC:LRIF1:1,2019-09-08T04:00:00Z,25.2840,-80.8940,1.5,6.91,11111222 
ENP,ioos.station.NOAA.NDBC:LRIF1:1,2019-09-08T06:00:00Z,25.2840,-80.8940,1.5,6.9,11111222 
ENP,ioos.station.NOAA.NDBC:LRIF1:1,2019-09-08T07:00:00Z,25.2840,-80.8940,1.5,6.95,11111222 
ENP,ioos.station.NOAA.NDBC:LRIF1:1,2019-09-08T08:00:00Z,25.2840,-80.8940,1.5,7.07,11111222 
ENP,ioos.station.NOAA.NDBC:LRIF1:1,2019-09-08T09:00:00Z,25.2840,-80.8940,1.5,7.18,11111222 
ENP,ioos.station.NOAA.NDBC:LRIF1:1,2019-09-08T10:00:00Z,25.2840,-80.8940,1.5,7.28,11111222 
ENP,ioos.station.NOAA.NDBC:LRIF1:1,2019-09-08T11:00:00Z,25.2840,-80.8940,1.5,7.23,11111222 
ENP,ioos.station.NOAA.NDBC:LRIF1:1,2019-09-08T12:00:00Z,25.2840,-80.8940,1.5,6.87,11111222 
ENP,ioos.station.NOAA.NDBC:LRIF1:1,2019-09-08T13:00:00Z,25.2840,-80.8940,1.5,6.75,11111222 
ENP,ioos.station.NOAA.NDBC:LRIF1:1,2019-09-08T14:00:00Z,25.2840,-80.8940,1.5,6.66,11111222 
ENP,ioos.station.NOAA.NDBC:LRIF1:1,2019-09-08T15:00:00Z,25.2840,-80.8940,1.5,6.67,11111222 
ENP,ioos.station.NOAA.NDBC:LRIF1:1,2019-09-08T16:00:00Z,25.2840,-80.8940,1.5,6.69,11111222 
ENP,ioos.station.NOAA.NDBC:LRIF1:1,2019-09-08T17:00:00Z,25.2840,-80.8940,1.5,6.7,11111222 
ENP,ioos.station.NOAA.NDBC:LRIF1:1,2019-09-08T18:00:00Z,25.2840,-80.8940,1.5,6.71,11111222 
ENP,ioos.station.NOAA.NDBC:LRIF1:1,2019-09-08T19:00:00Z,25.2840,-80.8940,1.5,6.91,11111222 
ENP,ioos.station.NOAA.NDBC:LRIF1:1,2019-09-08T20:00:00Z,25.2840,-80.8940,1.5,7.55,11111222 
ENP,ioos.station.NOAA.NDBC:LRIF1:1,2019-09-08T21:00:00Z,25.2840,-80.8940,1.5,8.0,11111222 
ENP,ioos.station.NOAA.NDBC:LRIF1:1,2019-09-08T22:00:00Z,25.2840,-80.8940,1.5,8.12,11111222 
ENP,ioos.station.NOAA.NDBC:LRIF1:1,2019-09-08T23:00:00Z,25.2840,-80.8940,1.5,8.04,11111222 
ENP,ioos.station.NOAA.NDBC:LRIF1:1,2019-09-09T00:00:00Z,25.2840,-80.8940,1.5,7.84,11111222 
ENP,ioos.station.NOAA.NDBC:LRIF1:1,2019-09-09T01:00:00Z,25.2840,-80.8940,1.5,7.22,11111222 
ENP,ioos.station.NOAA.NDBC:LRIF1:1,2019-09-09T02:00:00Z,25.2840,-80.8940,1.5,7.08,11111222 
ENP,ioos.station.NOAA.NDBC:LRIF1:1,2019-09-09T04:00:00Z,25.2840,-80.8940,1.5,6.67,11111222 
ENP,ioos.station.NOAA.NDBC:LRIF1:1,2019-09-09T05:00:00Z,25.2840,-80.8940,1.5,6.56,11111222 
ENP,ioos.station.NOAA.NDBC:LRIF1:1,2019-09-09T06:00:00Z,25.2840,-80.8940,1.5,6.5,11111222 
ENP,ioos.station.NOAA.NDBC:LRIF1:1,2019-09-09T07:00:00Z,25.2840,-80.8940,1.5,6.37,11111222 
ENP,ioos.station.NOAA.NDBC:LRIF1:1,2019-09-09T08:00:00Z,25.2840,-80.8940,1.5,6.35,11111222 
ENP,ioos.station.NOAA.NDBC:LRIF1:1,2019-09-09T09:00:00Z,25.2840,-80.8940,1.5,6.45,11111222 
ENP,ioos.station.NOAA.NDBC:LRIF1:1,2019-09-09T10:00:00Z,25.2840,-80.8940,1.5,6.48,11111222 
ENP,ioos.station.NOAA.NDBC:LRIF1:1,2019-09-09T11:00:00Z,25.2840,-80.8940,1.5,6.45,11111222 
ENP,ioos.station.NOAA.NDBC:LRIF1:1,2019-09-09T12:00:00Z,25.2840,-80.8940,1.5,6.21,11111222 
ENP,ioos.station.NOAA.NDBC:LRIF1:1,2019-09-09T13:00:00Z,25.2840,-80.8940,1.5,6.16,11111222 
ENP,ioos.station.NOAA.NDBC:LRIF1:1,2019-09-09T14:00:00Z,25.2840,-80.8940,1.5,5.99,11111222 
ENP,ioos.station.NOAA.NDBC:LRIF1:1,2019-09-09T15:00:00Z,25.2840,-80.8940,1.5,5.86,11111222 
ENP,ioos.station.NOAA.NDBC:LRIF1:1,2019-09-09T16:00:00Z,25.2840,-80.8940,1.5,5.79,11111222 
ENP,ioos.station.NOAA.NDBC:LRIF1:1,2019-09-09T17:00:00Z,25.2840,-80.8940,1.5,5.74,11111222 
ENP,ioos.station.NOAA.NDBC:LRIF1:1,2019-09-09T21:00:00Z,25.2840,-80.8940,1.5,6.1,11111222 
ENP,ioos.station.NOAA.NDBC:LRIF1:1,2019-09-09T22:00:00Z,25.2840,-80.8940,1.5,6.43,11111222 
ENP,ioos.station.NOAA.NDBC:LRIF1:1,2019-09-09T23:00:00Z,25.2840,-80.8940,1.5,6.42,11111222 
ENP,ioos.station.NOAA.NDBC:LRIF1:1,2019-09-10T00:00:00Z,25.2840,-80.8940,1.5,6.34,11111222 
ENP,ioos.station.NOAA.NDBC:LRIF1:1,2019-09-10T01:00:00Z,25.2840,-80.8940,1.5,6.22,11111222 
ENP,ioos.station.NOAA.NDBC:LRIF1:1,2019-09-10T02:00:00Z,25.2840,-80.8940,1.5,6.1,11111222 
ENP,ioos.station.NOAA.NDBC:LRIF1:1,2019-09-10T04:00:00Z,25.2840,-80.8940,1.5,5.92,11111222 
ENP,ioos.station.NOAA.NDBC:LRIF1:1,2019-09-10T05:00:00Z,25.2840,-80.8940,1.5,5.72,11111222 
ENP,ioos.station.NOAA.NDBC:LRIF1:1,2019-09-10T06:00:00Z,25.2840,-80.8940,1.5,5.52,11111222 
ENP,ioos.station.NOAA.NDBC:LRIF1:1,2019-09-10T07:00:00Z,25.2840,-80.8940,1.5,5.29,11111222 
ENP,ioos.station.NOAA.NDBC:LRIF1:1,2019-09-10T08:00:00Z,25.2840,-80.8940,1.5,5.14,11111222 
ENP,ioos.station.NOAA.NDBC:LRIF1:1,2019-09-10T09:00:00Z,25.2840,-80.8940,1.5,5.07,11111222 
ENP,ioos.station.NOAA.NDBC:LRIF1:1,2019-09-10T10:00:00Z,25.2840,-80.8940,1.5,5.21,11111222 
ENP,ioos.station.NOAA.NDBC:LRIF1:1,2019-09-10T11:00:00Z,25.2840,-80.8940,1.5,5.47,11111222 
ENP,ioos.station.NOAA.NDBC:LRIF1:1,2019-09-10T12:00:00Z,25.2840,-80.8940,1.5,5.07,11111222 
ENP,ioos.station.NOAA.NDBC:LRIF1:1,2019-09-10T13:00:00Z,25.2840,-80.8940,1.5,4.99,11111222 
ENP,ioos.station.NOAA.NDBC:LRIF1:1,2019-09-10T14:00:00Z,25.2840,-80.8940,1.5,4.9,11111222 
ENP,ioos.station.NOAA.NDBC:LRIF1:1,2019-09-10T15:00:00Z,25.2840,-80.8940,1.5,4.78,11111222 
ENP,ioos.station.NOAA.NDBC:LRIF1:1,2019-09-10T16:00:00Z,25.2840,-80.8940,1.5,4.69,11111222 
ENP,ioos.station.NOAA.NDBC:LRIF1:1,2019-09-10T17:00:00Z,25.2840,-80.8940,1.5,4.63,11111222 
ENP,ioos.station.NOAA.NDBC:LRIF1:1,2019-09-10T18:00:00Z,25.2840,-80.8940,1.5,4.57,11111222 
ENP,ioos.station.NOAA.NDBC:LRIF1:1,2019-09-10T19:00:00Z,25.2840,-80.8940,1.5,4.54,11111222 
ENP,ioos.station.NOAA.NDBC:LRIF1:1,2019-09-10T20:00:00Z,25.2840,-80.8940,1.5,4.57,11111222 
ENP,ioos.station.NOAA.NDBC:LRIF1:1,2019-09-10T21:00:00Z,25.2840,-80.8940,1.5,4.69,11111222 
ENP,ioos.station.NOAA.NDBC:LRIF1:1,2019-09-10T22:00:00Z,25.2840,-80.8940,1.5,4.85,11111222 
ENP,ioos.station.NOAA.NDBC:LRIF1:1,2019-09-10T23:00:00Z,25.2840,-80.8940,1.5,4.96,11111222 
ENP,ioos.station.NOAA.NDBC:LRIF1:1,2019-09-11T00:00:00Z,25.2840,-80.8940,1.5,4.94,11111222 
ENP,ioos.station.NOAA.NDBC:LRIF1:1,2019-09-11T01:00:00Z,25.2840,-80.8940,1.5,4.87,11111222 
ENP,ioos.station.NOAA.NDBC:LRIF1:1,2019-09-11T02:00:00Z,25.2840,-80.8940,1.5,4.77,11111222 
ENP,ioos.station.NOAA.NDBC:LRIF1:1,2019-09-11T04:00:00Z,25.2840,-80.8940,1.5,4.48,11111222 
ENP,ioos.station.NOAA.NDBC:LRIF1:1,2019-09-11T06:00:00Z,25.2840,-80.8940,1.5,4.27,11111222 
ENP,ioos.station.NOAA.NDBC:LRIF1:1,2019-09-11T07:00:00Z,25.2840,-80.8940,1.5,4.12,11111222 
ENP,ioos.station.NOAA.NDBC:LRIF1:1,2019-09-11T08:00:00Z,25.2840,-80.8940,1.5,3.98,11111222 
ENP,ioos.station.NOAA.NDBC:LRIF1:1,2019-09-11T09:00:00Z,25.2840,-80.8940,1.5,3.88,11111222 
ENP,ioos.station.NOAA.NDBC:LRIF1:1,2019-09-11T10:00:00Z,25.2840,-80.8940,1.5,3.77,11111222 
ENP,ioos.station.NOAA.NDBC:LRIF1:1,2019-09-11T11:00:00Z,25.2840,-80.8940,1.5,3.75,11111222 
ENP,ioos.station.NOAA.NDBC:LRIF1:1,2019-09-11T12:00:00Z,25.2840,-80.8940,1.5,3.74,11111222 
ENP,ioos.station.NOAA.NDBC:LRIF1:1,2019-09-11T13:00:00Z,25.2840,-80.8940,1.5,3.71,11111222 
ENP,ioos.station.NOAA.NDBC:LRIF1:1,2019-09-11T14:00:00Z,25.2840,-80.8940,1.5,3.57,11111222 
ENP,ioos.station.NOAA.NDBC:LRIF1:1,2019-09-11T15:00:00Z,25.2840,-80.8940,1.5,3.51,11111222 
ENP,ioos.station.NOAA.NDBC:LRIF1:1,2019-09-11T16:00:00Z,25.2840,-80.8940,1.5,3.44,11111222 
ENP,ioos.station.NOAA.NDBC:LRIF1:1,2019-09-11T17:00:00Z,25.2840,-80.8940,1.5,3.35,11111222 
ENP,ioos.station.NOAA.NDBC:LRIF1:1,2019-09-11T19:00:00Z,25.2840,-80.8940,1.5,3.29,11111222 
ENP,ioos.station.NOAA.NDBC:LRIF1:1,2019-09-11T20:00:00Z,25.2840,-80.8940,1.5,3.23,11111222 
ENP,ioos.station.NOAA.NDBC:LRIF1:1,2019-09-11T21:00:00Z,25.2840,-80.8940,1.5,3.27,11111222 
ENP,ioos.station.NOAA.NDBC:LRIF1:1,2019-09-11T22:00:00Z,25.2840,-80.8940,1.5,3.57,11111222 
ENP,ioos.station.NOAA.NDBC:LRIF1:1,2019-09-11T23:00:00Z,25.2840,-80.8940,1.5,3.67,11111222 
ENP,ioos.station.NOAA.NDBC:LRIF1:1,2019-09-12T00:00:00Z,25.2840,-80.8940,1.5,3.81,11111222 
ENP,ioos.station.NOAA.NDBC:LRIF1:1,2019-09-12T01:00:00Z,25.2840,-80.8940,1.5,3.52,11111222 
ENP,ioos.station.NOAA.NDBC:LRIF1:1,2019-09-12T02:00:00Z,25.2840,-80.8940,1.5,3.37,11111222 
ENP,ioos.station.NOAA.NDBC:LRIF1:1,2019-09-12T04:00:00Z,25.2840,-80.8940,1.5,3.17,11111222 
ENP,ioos.station.NOAA.NDBC:LRIF1:1,2019-09-12T06:00:00Z,25.2840,-80.8940,1.5,3.03,11111222 
ENP,ioos.station.NOAA.NDBC:LRIF1:1,2019-09-12T07:00:00Z,25.2840,-80.8940,1.5,2.98,11111222 
ENP,ioos.station.NOAA.NDBC:LRIF1:1,2019-09-12T08:00:00Z,25.2840,-80.8940,1.5,2.91,11111222 
ENP,ioos.station.NOAA.NDBC:LRIF1:1,2019-09-12T09:00:00Z,25.2840,-80.8940,1.5,2.89,11111222 
ENP,ioos.station.NOAA.NDBC:LRIF1:1,2019-09-12T10:00:00Z,25.2840,-80.8940,1.5,2.83,11111222 
ENP,ioos.station.NOAA.NDBC:LRIF1:1,2019-09-12T11:00:00Z,25.2840,-80.8940,1.5,3.42,11111222 
ENP,ioos.station.NOAA.NDBC:LRIF1:1,2019-09-12T12:00:00Z,25.2840,-80.8940,1.5,3.53,11111222 
ENP,ioos.station.NOAA.NDBC:LRIF1:1,2019-09-12T13:00:00Z,25.2840,-80.8940,1.5,3.07,11111222 
ENP,ioos.station.NOAA.NDBC:LRIF1:1,2019-09-12T14:00:00Z,25.2840,-80.8940,1.5,2.9,11111222 
ENP,ioos.station.NOAA.NDBC:LRIF1:1,2019-09-12T15:00:00Z,25.2840,-80.8940,1.5,2.82,11111222 
ENP,ioos.station.NOAA.NDBC:LRIF1:1,2019-09-13T19:00:00Z,25.2840,-80.8940,1.5,2.39,11111222 
ENP,ioos.station.NOAA.NDBC:LRIF1:1,2019-09-13T20:00:00Z,25.2840,-80.8940,1.5,2.36,11111222 
ENP,ioos.station.NOAA.NDBC:LRIF1:1,2019-09-13T21:00:00Z,25.2840,-80.8940,1.5,2.32,11111222 
ENP,ioos.station.NOAA.NDBC:LRIF1:1,2019-09-13T22:00:00Z,25.2840,-80.8940,1.5,2.28,11111222 
ENP,ioos.station.NOAA.NDBC:LRIF1:1,2019-09-13T23:00:00Z,25.2840,-80.8940,1.5,2.31,11111222 
ENP,ioos.station.NOAA.NDBC:LRIF1:1,2019-09-14T00:00:00Z,25.2840,-80.8940,1.5,2.49,11111222 
ENP,ioos.station.NOAA.NDBC:LRIF1:1,2019-09-14T02:00:00Z,25.2840,-80.8940,1.5,2.73,11111222 
ENP,ioos.station.NOAA.NDBC:LRIF1:1,2019-09-14T04:00:00Z,25.2840,-80.8940,1.5,2.47,11111222 
ENP,ioos.station.NOAA.NDBC:LRIF1:1,2019-09-14T06:00:00Z,25.2840,-80.8940,1.5,2.31,11111222 
ENP,ioos.station.NOAA.NDBC:LRIF1:1,2019-09-14T07:00:00Z,25.2840,-80.8940,1.5,2.26,11111222 
ENP,ioos.station.NOAA.NDBC:LRIF1:1,2019-09-14T08:00:00Z,25.2840,-80.8940,1.5,2.22,11111222 
ENP,ioos.station.NOAA.NDBC:LRIF1:1,2019-09-14T09:00:00Z,25.2840,-80.8940,1.5,2.19,11111222 
ENP,ioos.station.NOAA.NDBC:LRIF1:1,2019-09-14T10:00:00Z,25.2840,-80.8940,1.5,2.17,11111222 
ENP,ioos.station.NOAA.NDBC:LRIF1:1,2019-09-14T11:00:00Z,25.2840,-80.8940,1.5,2.11,11111222 